TimeEDT,TemperatureF,Dew PointF,Humidity,Sea Level PressureIn,VisibilityMPH,Wind Direction,Wind SpeedMPH,Gust SpeedMPH,PrecipitationIn,Events,Conditions,WindDirDegrees,DateUTC
12:53 AM,52.0,-9999,N/A,29.99,5.0,East,5.8,-,0.02,,Haze,80,2013-05-28 04:53:00
1:53 AM,52.0,-9999,N/A,29.98,4.0,East,4.6,-,N/A,,Haze,80,2013-05-28 05:53:00
2:53 AM,52.0,-9999,N/A,29.96,4.0,East,5.8,-,0.00,,Haze,80,2013-05-28 06:53:00
3:53 AM,53.1,-9999,N/A,29.95,3.0,East,3.5,-,0.01,,Overcast,90,2013-05-28 07:53:00
4:53 AM,53.1,53.1,100,29.93,3.0,East,3.5,-,N/A,,Overcast,100,2013-05-28 08:53:00
5:01 AM,53.6,53.6,100,29.93,2.5,East,4.6,-,N/A,,Overcast,90,2013-05-28 09:01:00
5:53 AM,53.1,53.1,100,29.95,2.0,East,3.5,-,N/A,,Overcast,80,2013-05-28 09:53:00
6:07 AM,53.6,53.6,100,29.95,1.8,Calm,Calm,-,N/A,,Overcast,0,2013-05-28 10:07:00
6:36 AM,53.6,53.6,100,29.95,1.2,East,3.5,-,N/A,,Overcast,100,2013-05-28 10:36:00
6:53 AM,54.0,53.1,97,29.96,1.2,East,3.5,-,N/A,,Overcast,80,2013-05-28 10:53:00
7:42 AM,53.6,53.6,100,29.97,1.8,Calm,Calm,-,0.02,Rain,Light Rain,0,2013-05-28 11:42:00
7:53 AM,54.0,-9999,N/A,29.98,1.5,Calm,Calm,-,0.02,,Overcast,0,2013-05-28 11:53:00
8:43 AM,55.4,-9999,N/A,29.94,1.5,East,4.6,-,0.04,Rain-Thunderstorm,Light Rain,90,2013-05-28 12:43:00
8:51 AM,55.4,-9999,N/A,29.94,1.5,NE,3.5,-,0.04,Rain-Thunderstorm,Light Rain,40,2013-05-28 12:51:00
8:53 AM,55.0,-9999,N/A,29.95,1.5,Calm,Calm,-,0.04,Thunderstorm,Overcast,0,2013-05-28 12:53:00
9:11 AM,55.4,55.4,100,29.94,1.8,Calm,Calm,-,N/A,,Overcast,0,2013-05-28 13:11:00
9:34 AM,57.2,55.4,94,29.94,2.0,ESE,4.6,-,N/A,,Mostly Cloudy,110,2013-05-28 13:34:00
9:53 AM,57.9,55.9,93,29.94,2.0,SSE,3.5,-,N/A,,Overcast,160,2013-05-28 13:53:00
10:09 AM,57.2,55.4,94,29.93,2.0,SE,5.8,-,N/A,Thunderstorm,Overcast,140,2013-05-28 14:09:00
10:25 AM,59.0,57.2,94,29.93,2.5,SSE,6.9,-,N/A,,Overcast,160,2013-05-28 14:25:00
10:34 AM,59.0,57.2,94,29.93,3.0,SE,5.8,-,N/A,,Overcast,130,2013-05-28 14:34:00
10:53 AM,60.1,57.9,93,29.93,4.0,SE,4.6,-,N/A,,Overcast,130,2013-05-28 14:53:00
11:30 AM,64.4,60.8,88,29.93,7.0,Variable,3.5,-,N/A,,Mostly Cloudy,0,2013-05-28 15:30:00
11:53 AM,66.0,63.0,90,29.91,7.0,SSE,4.6,-,N/A,,Mostly Cloudy,150,2013-05-28 15:53:00
12:33 PM,69.8,64.4,83,29.89,8.0,SE,4.6,-,N/A,,Overcast,140,2013-05-28 16:33:00
12:53 PM,70.0,66.0,87,29.89,8.0,SSE,8.1,-,N/A,,Overcast,160,2013-05-28 16:53:00
1:04 PM,71.6,66.2,83,29.89,8.0,SE,5.8,-,N/A,,Overcast,130,2013-05-28 17:04:00
1:53 PM,73.0,66.0,79,29.88,10.0,SSW,8.1,-,N/A,,Overcast,210,2013-05-28 17:53:00
2:40 PM,75.2,68.0,78,29.86,10.0,SSW,9.2,-,0.00,,Mostly Cloudy,210,2013-05-28 18:40:00
2:53 PM,75.9,68.0,76,29.85,10.0,SSW,9.2,-,0.00,,Mostly Cloudy,200,2013-05-28 18:53:00
3:32 PM,75.2,66.2,73,29.87,10.0,SW,10.4,20.7,N/A,,Mostly Cloudy,230,2013-05-28 19:32:00
3:50 PM,77.0,68.0,74,29.87,10.0,SW,12.7,19.6,N/A,,Mostly Cloudy,230,2013-05-28 19:50:00
3:53 PM,78.1,68.0,71,29.86,10.0,SW,11.5,19.6,N/A,,Scattered Clouds,230,2013-05-28 19:53:00
4:53 PM,75.9,66.9,74,29.85,10.0,SW,11.5,21.9,N/A,,Overcast,230,2013-05-28 20:53:00
5:53 PM,75.9,66.9,74,29.84,10.0,SW,15.0,24.2,N/A,,Overcast,220,2013-05-28 21:53:00
6:53 PM,73.0,70.0,90,29.85,8.0,West,5.8,-,0.04,,Mostly Cloudy,260,2013-05-28 22:53:00
7:53 PM,75.0,70.0,84,29.84,9.0,SSW,9.2,-,N/A,,Clear,210,2013-05-28 23:53:00
8:53 PM,75.0,66.0,73,29.83,10.0,SW,10.4,-,N/A,,Mostly Cloudy,220,2013-05-29 00:53:00
9:53 PM,73.9,66.0,76,29.82,10.0,SSW,10.4,-,N/A,,Mostly Cloudy,210,2013-05-29 01:53:00
10:53 PM,73.9,66.0,76,29.83,10.0,SSW,9.2,-,N/A,,Mostly Cloudy,210,2013-05-29 02:53:00
11:53 PM,73.0,66.0,79,29.83,10.0,SSW,11.5,-,N/A,,Mostly Cloudy,200,2013-05-29 03:53:00